�N����,����,�g�[���i�����r���O�j���x,�g�[�����x,��g�[���i���ցj���x,����
 2002/11/01, 0:00,17,63.6,16.8,16.5
 2002/11/01, 0:15,16.9,63.6,16.9,16.5
 2002/11/01, 0:30,16.9,63.4,16.8,16.4
 2002/11/01, 0:45,16.9,63.3,16.8,16.4
 2002/11/01, 1:00,16.8,63.3,16.7,16.4
 2002/11/01, 1:15,16.8,63.2,16.6,16.4
 2002/11/01, 1:30,16.7,63.2,16.7,16.4
 2002/11/01, 1:45,16.7,63.1,16.6,16.3
 2002/11/01, 2:00,16.7,63.1,16.6,16.4
 2002/11/01, 2:15,16.7,63.2,16.6,16.3
 2002/11/01, 2:30,16.6,63.1,16.5,16.3
 2002/11/01, 2:45,16.6,63.3,16.5,16.3
 2002/11/01, 3:00,16.5,63.3,16.6,16.3
 2002/11/01, 3:15,16.6,63.2,16.6,16.3
 2002/11/01, 3:30,16.5,63.4,16.6,16.3
 2002/11/01, 3:45,16.5,63.4,16.6,16.3
 2002/11/01, 4:00,16.5,64.2,16.6,16.3
 2002/11/01, 4:15,16.5,64.4,16.6,16.2
 2002/11/01, 4:30,16.5,64.5,16.5,16.2
 2002/11/01, 4:45,16.4,64.7,16.6,16.2
 2002/11/01, 5:00,16.4,64.6,16.6,16.2
 2002/11/01, 5:15,16.5,64.7,16.6,16.2
 2002/11/01, 5:30,16.4,64.8,16.6,16.2
 2002/11/01, 5:45,16.6,65.9,16.6,16.2
 2002/11/01, 6:00,16.8,66.2,16.5,16.2
 2002/11/01, 6:15,17,67.3,16.6,16.2
 2002/11/01, 6:30,16.8,67.9,16.9,16.2
 2002/11/01, 6:45,16.9,67.9,16.9,16.1
 2002/11/01, 7:00,16.9,67,16.9,16.1
 2002/11/01, 7:15,16.9,67.1,16.8,16.1
 2002/11/01, 7:30,17,68,17,16.1
 2002/11/01, 7:45,17,69,16.9,16.1
 2002/11/01, 8:00,17.3,68.2,16.9,16.1
 2002/11/01, 8:15,17.5,67.9,16.9,16.6
 2002/11/01, 8:30,17.5,67.4,17.1,16.6
 2002/11/01, 8:45,17.6,66.8,17.2,16.6
 2002/11/01, 9:00,17.6,67.2,17.3,16.6
 2002/11/01, 9:15,17.5,67.3,17.3,16.6
 2002/11/01, 9:30,17.4,66.8,17.2,16.6
 2002/11/01, 9:45,17.4,66.7,17.2,16.6
 2002/11/01,10:00,17.3,66.6,17.2,16.6
 2002/11/01,10:15,17.4,66.4,17.2,16.6
 2002/11/01,10:30,17.4,66.1,17.1,16.6
 2002/11/01,10:45,17.4,65.9,17.2,16.5
 2002/11/01,11:00,17.4,65.8,17.1,16.5
 2002/11/01,11:15,17.4,65.6,17.1,16.5
 2002/11/01,11:30,17.4,65.7,17.2,16.6
 2002/11/01,11:45,17.4,65.5,17.1,16.5
 2002/11/01,12:00,17.4,65.5,17.1,16.5
 2002/11/01,12:15,17.4,66.9,17.3,16.5
 2002/11/01,12:30,17.7,67.5,17.4,16.5
 2002/11/01,12:45,17.8,67.6,17.5,16.5
 2002/11/01,13:00,17.8,66.7,17.4,16.6
 2002/11/01,13:15,17.9,66.5,17.5,16.6
 2002/11/01,13:30,17.9,66.2,17.6,16.6
 2002/11/01,13:45,17.9,66,17.6,16.7
 2002/11/01,14:00,18,65.6,17.8,16.5
 2002/11/01,14:15,18.1,65.1,17.9,16.5
 2002/11/01,14:30,18.1,64.9,17.9,16.5
 2002/11/01,14:45,18.1,64.9,17.8,16.5
 2002/11/01,15:00,18.1,64.8,17.9,16.5
 2002/11/01,15:15,18.3,65.1,17.8,16.5
 2002/11/01,15:30,18.4,64.9,17.9,16.5
 2002/11/01,15:45,18.4,65.6,18.1,16.5
 2002/11/01,16:00,18.6,66.5,18.1,16.5
 2002/11/01,16:15,18.4,65.6,18.1,16.5
 2002/11/01,16:30,18.7,66.1,18.3,16.5
 2002/11/01,16:45,18.7,69.1,18.4,16.5
 2002/11/01,17:00,18.7,67.5,18.2,16.5
 2002/11/01,17:15,18.7,66.5,18.4,16.6
 2002/11/01,17:30,18.7,66.8,18.5,16.6
 2002/11/01,17:45,18.6,66.3,18.5,16.6
 2002/11/01,18:00,18.5,66.3,18.5,16.6
 2002/11/01,18:15,18.4,66.1,18.3,16.6
 2002/11/01,18:30,18.3,66.2,18.3,16.6
 2002/11/01,18:45,18.2,66,18.4,16.6
 2002/11/01,19:00,18.2,66,18.2,16.6
 2002/11/01,19:15,18.5,66.2,18.2,16.6
 2002/11/01,19:30,18.4,67.1,18.3,16.6
 2002/11/01,19:45,18.5,67.3,18.4,16.6
 2002/11/01,20:00,18.6,67,18.4,17.3
 2002/11/01,20:15,18.6,67,18.5,17.3
 2002/11/01,20:30,18.8,68.4,18.6,17.3
 2002/11/01,20:45,18.7,69.4,18.6,17.3
 2002/11/01,21:00,18.7,69.7,18.6,17.3
 2002/11/01,21:15,19,73.1,18.6,17.3
 2002/11/01,21:30,18.8,72.8,18.5,17.3
 2002/11/01,21:45,18.7,74,18.5,17.3
 2002/11/01,22:00,18.6,74,18.4,17.3
 2002/11/01,22:15,18.5,74,18.4,17.3
 2002/11/01,22:30,18.4,73.5,18.3,17.2
 2002/11/01,22:45,18.3,73.3,18.3,17.3
 2002/11/01,23:00,18.2,72.5,18.3,17.2
 2002/11/01,23:15,18.1,72.1,18.2,17.2
 2002/11/01,23:30,18,71.3,18.1,17.2
 2002/11/01,23:45,17.9,71,18,17.2
 2002/11/02, 0:00,17.8,70.3,17.8,17.2
 2002/11/02, 0:15,17.7,69.8,17.9,17.2
 2002/11/02, 0:30,17.6,69,17.8,17.2
 2002/11/02, 0:45,17.5,68.4,17.6,17.2
 2002/11/02, 1:00,17.4,67.4,17.6,17.1
 2002/11/02, 1:15,17.4,66.1,17.5,16.8
 2002/11/02, 1:30,17.2,65.9,17.4,16.8
 2002/11/02, 1:45,17.1,65.4,17.4,16.8
 2002/11/02, 2:00,17,64.9,17.2,16.8
 2002/11/02, 2:15,16.9,64.4,17.2,16.3
 2002/11/02, 2:30,16.8,64.3,17.1,16.3
 2002/11/02, 2:45,16.7,63.9,17,16.3
 2002/11/02, 3:00,16.6,63.7,17,16.3
 2002/11/02, 3:15,16.5,63.3,16.8,16.3
 2002/11/02, 3:30,16.4,63.2,16.9,16.3
 2002/11/02, 3:45,16.4,62.8,16.8,16.3
 2002/11/02, 4:00,16.2,62.6,16.7,16.3
 2002/11/02, 4:15,16.2,62.4,16.6,16.3
 2002/11/02, 4:30,16.1,62.2,16.5,16.2
 2002/11/02, 4:45,16,62,16.4,15.8
 2002/11/02, 5:00,15.9,62,16.5,15.8
 2002/11/02, 5:15,15.9,61.8,16.5,15.8
 2002/11/02, 5:30,15.8,61.8,16.4,15.8
 2002/11/02, 5:45,15.7,61.5,16.3,15.8
 2002/11/02, 6:00,15.6,61.5,16.3,15.8
 2002/11/02, 6:15,15.5,61.4,16.2,15.8
 2002/11/02, 6:30,15.5,61.4,16.1,15.7
 2002/11/02, 6:45,15.4,61.2,16.1,15.7
 2002/11/02, 7:00,15.3,61.3,16.1,15.7
 2002/11/02, 7:15,15.3,61.5,16,15.4
 2002/11/02, 7:30,15.3,61.6,16,15.4
 2002/11/02, 7:45,15.4,61.6,16,15.4
 2002/11/02, 8:00,15.5,61.8,16,15.4
 2002/11/02, 8:15,16.3,63.9,16.2,16.1
 2002/11/02, 8:30,16.5,63.2,16.2,16.1
 2002/11/02, 8:45,16.8,61.4,16.5,16.1
 2002/11/02, 9:00,17,60.8,16.5,16.1
 2002/11/02, 9:15,16.9,60.5,16.6,16.1
 2002/11/02, 9:30,16.7,60.6,16.6,16
 2002/11/02, 9:45,16.6,60.7,16.4,16
 2002/11/02,10:00,16.7,60.8,16.5,16
 2002/11/02,10:15,16.7,60.4,16.6,16
 2002/11/02,10:30,16.7,60.4,16.6,16
 2002/11/02,10:45,16.7,60.5,16.6,16
 2002/11/02,11:00,16.9,60.3,16.8,16
 2002/11/02,11:15,17,59.8,17,16
 2002/11/02,11:30,17,59.9,17,16
 2002/11/02,11:45,17.1,59.8,17.1,16
 2002/11/02,12:00,17.2,59.7,17.4,15.9
 2002/11/02,12:15,17.2,59.5,17.5,16
 2002/11/02,12:30,17.3,59.5,17.8,16
 2002/11/02,12:45,17.3,59.5,18,15.9
 2002/11/02,13:00,17.4,59.5,18.2,15.9
 2002/11/02,13:15,17.8,58.7,18.2,15.9
 2002/11/02,13:30,18.1,58.1,18.6,15.9
 2002/11/02,13:45,18.3,57.9,18.7,15.9
 2002/11/02,14:00,18.3,57.8,18.5,15.9
 2002/11/02,14:15,18.5,57.2,18.7,15.9
 2002/11/02,14:30,18.8,56.9,19,15.9
 2002/11/02,14:45,18.8,56.5,19,16
 2002/11/02,15:00,18.7,56.8,19.1,16
 2002/11/02,15:15,18.8,56.5,18.6,15.9
 2002/11/02,15:30,18.9,57.7,18.7,16
 2002/11/02,15:45,18.6,54.9,18.4,16
 2002/11/02,16:00,18.7,55.7,18.5,16
 2002/11/02,16:15,18.6,56.5,18.3,16
 2002/11/02,16:30,18.5,56.7,18.3,16
 2002/11/02,16:45,18.5,58,18.1,16
 2002/11/02,17:00,18.2,57.5,18.1,16
 2002/11/02,17:15,18.1,58.2,18,16
 2002/11/02,17:30,18,57.9,18,16
 2002/11/02,17:45,18,59.4,17.8,16
 2002/11/02,18:00,18,58.6,17.8,16
 2002/11/02,18:15,18,58.9,18.3,16
 2002/11/02,18:30,18.4,60,18.1,16
 2002/11/02,18:45,18.3,60.1,18.2,16
 2002/11/02,19:00,18.1,59.2,18.1,16.1
 2002/11/02,19:15,18.2,60.1,18,16.9
 2002/11/02,19:30,18.2,59.4,18,16.9
 2002/11/02,19:45,18.4,61.7,18.1,16.9
 2002/11/02,20:00,18.3,59.9,18.1,16.9
 2002/11/02,20:15,18.1,60.8,18.1,16.9
 2002/11/02,20:30,18.1,60.9,18,16.8
 2002/11/02,20:45,18,61.5,18.1,16.8
 2002/11/02,21:00,18.1,62.8,18,16.8
 2002/11/02,21:15,18,63.8,17.9,16.8
 2002/11/02,21:30,17.9,62.8,17.9,16.8
 2002/11/02,21:45,17.7,62.3,17.7,16.4
 2002/11/02,22:00,17.5,61.2,17.6,16.3
 2002/11/02,22:15,17.4,60.8,17.5,16.3
 2002/11/02,22:30,17.2,60.3,17.5,16.3
 2002/11/02,22:45,17,60.1,17.3,16.3
 2002/11/02,23:00,16.9,59.5,17.2,16.3
 2002/11/02,23:15,16.7,59.6,17.1,16.3
 2002/11/02,23:30,16.6,59.2,16.9,16.3
 2002/11/02,23:45,16.4,59.2,16.9,16.3
 2002/11/03, 0:00,16.3,59,16.6,16.3
 2002/11/03, 0:15,16.2,58.8,16.6,15.7
 2002/11/03, 0:30,16,58.5,16.6,15.6
 2002/11/03, 0:45,15.9,58.6,16.5,15.6
 2002/11/03, 1:00,15.8,58.5,16.3,15.6
 2002/11/03, 1:15,15.7,58.5,16.2,15.6
 2002/11/03, 1:30,15.6,58.2,16.2,15.6
 2002/11/03, 1:45,15.5,58.3,16.1,15.6
 2002/11/03, 2:00,15.4,57.9,15.9,15.6
 2002/11/03, 2:15,15.3,57.9,16,15.6
 2002/11/03, 2:30,15.2,57.8,15.7,15.5
 2002/11/03, 2:45,15.1,57.8,15.8,15.5
 2002/11/03, 3:00,15,57.5,15.6,15.5
 2002/11/03, 3:15,14.9,57.6,15.6,15.5
 2002/11/03, 3:30,14.8,57.4,15.4,15.5
 2002/11/03, 3:45,14.8,57.4,15.3,15.5
 2002/11/03, 4:00,14.7,57.4,15.4,15.4
 2002/11/03, 4:15,14.6,57.4,15.3,15.4
 2002/11/03, 4:30,14.5,57.3,15.2,15.4
 2002/11/03, 4:45,14.4,57.2,15,15.4
 2002/11/03, 5:00,14.3,57.2,15,15.4
 2002/11/03, 5:15,14.3,57.2,14.8,15.3
 2002/11/03, 5:30,14.2,57,14.8,15.3
 2002/11/03, 5:45,14.1,57.1,14.7,15.3
 2002/11/03, 6:00,14,57.1,14.7,15.3
 2002/11/03, 6:15,13.9,57.1,14.5,15.2
 2002/11/03, 6:30,13.8,57.1,14.6,15.2
 2002/11/03, 6:45,13.7,57.1,14.5,15.2
 2002/11/03, 7:00,13.7,57.1,14.4,15.2
 2002/11/03, 7:15,13.7,57,14.3,15.1
 2002/11/03, 7:30,13.7,57.1,14.2,14.6
 2002/11/03, 7:45,13.8,57,14.3,14.6
 2002/11/03, 8:00,13.9,57,14.5,14.7
 2002/11/03, 8:15,14.3,59.6,14.5,14.7
 2002/11/03, 8:30,15.3,61.6,15.1,14.7
 2002/11/03, 8:45,15.5,60.9,15.5,14.6
 2002/11/03, 9:00,15.8,61.4,16.2,14.6
 2002/11/03, 9:15,16.2,60.4,16.6,14.6
 2002/11/03, 9:30,16.4,60.3,17.3,14.6
 2002/11/03, 9:45,16.4,59.9,17.5,14.6
 2002/11/03,10:00,16.6,59.1,17.9,14.6
 2002/11/03,10:15,16.7,59,18.2,14.5
 2002/11/03,10:30,16.9,58.8,18.5,14.5
 2002/11/03,10:45,17,58.5,18.8,14.5
 2002/11/03,11:00,17.1,58.7,18.7,14.5
 2002/11/03,11:15,17.2,58.5,18.7,14.5
 2002/11/03,11:30,17.3,58.3,18.7,14.5
 2002/11/03,11:45,17.5,58.1,18.9,14.5
 2002/11/03,12:00,17.6,58,19,14.5
 2002/11/03,12:15,17.6,57.8,19.1,14.5
 2002/11/03,12:30,17.7,57.8,19,14.5
 2002/11/03,12:45,17.8,57.6,19.1,14.5
 2002/11/03,13:00,17.8,57.6,19,14.5
 2002/11/03,13:15,17.8,57.1,19.1,14.5
 2002/11/03,13:30,17.7,57.4,18.5,14.5
 2002/11/03,13:45,17.7,57.5,18.2,14.5
 2002/11/03,14:00,17.7,57.6,18.2,14.5
 2002/11/03,14:15,17.7,57.9,18.1,14.5
 2002/11/03,14:30,17.6,57.6,17.8,14.5
 2002/11/03,14:45,17.6,57.6,17.8,14.6
 2002/11/03,15:00,17.5,57.7,17.6,14.6
 2002/11/03,15:15,17.5,57.9,17.6,14.6
 2002/11/03,15:30,17.4,58,17.6,14.6
 2002/11/03,15:45,17.3,58.1,17.4,14.6
 2002/11/03,16:00,17.2,58.2,17.4,14.6
 2002/11/03,16:15,17.2,58.2,17.2,14.6
 2002/11/03,16:30,17.1,58,17.2,14.6
 2002/11/03,16:45,17,57.9,17.1,14.6
 2002/11/03,17:00,16.9,58,16.9,14.6
 2002/11/03,17:15,16.8,57.9,16.9,14.6
 2002/11/03,17:30,16.8,57.3,16.8,14.7
 2002/11/03,17:45,16.9,58.8,16.9,14.7
 2002/11/03,18:00,16.9,58.1,17.1,14.7
 2002/11/03,18:15,18,62.2,17.1,14.7
 2002/11/03,18:30,18.1,62.1,16.9,14.7
 2002/11/03,18:45,18.6,61.4,17,14.7
 2002/11/03,19:00,18.5,60.2,16.9,14.7
 2002/11/03,19:15,17.9,60.7,17.3,14.8
 2002/11/03,19:30,17.7,60.1,17.4,14.9
 2002/11/03,19:45,17.6,60.9,17.3,14.9
 2002/11/03,20:00,17.4,60.5,17.3,14.9
 2002/11/03,20:15,17.2,60.7,17.4,14.9
 2002/11/03,20:30,17.4,61.6,17.2,14.9
 2002/11/03,20:45,17.3,61.4,17.2,14.9
 2002/11/03,21:00,17.5,63.5,17.3,14.9
 2002/11/03,21:15,17.2,62.9,17.2,14.9
 2002/11/03,21:30,17.1,64.7,17.1,14.9
 2002/11/03,21:45,17,65.4,17.1,17
 2002/11/03,22:00,16.9,64.5,16.9,17
 2002/11/03,22:15,16.7,64,17,16.9
 2002/11/03,22:30,16.6,63.1,16.8,16.9
 2002/11/03,22:45,16.5,62.7,16.7,16.9
 2002/11/03,23:00,16.3,62.2,16.6,16.8
 2002/11/03,23:15,16.2,61.9,16.6,16.8
 2002/11/03,23:30,16.1,61.4,16.4,16.8
 2002/11/03,23:45,16,61.4,16.3,16.7
 2002/11/04, 0:00,15.8,61,16.3,16.7
 2002/11/04, 0:15,15.7,61,16.2,16.6
 2002/11/04, 0:30,15.6,60.8,16,16.6
 2002/11/04, 0:45,15.6,60.7,15.9,16.6
 2002/11/04, 1:00,15.5,60.8,16,16.5
 2002/11/04, 1:15,15.4,60.7,15.8,16.5
 2002/11/04, 1:30,15.3,60.6,15.8,16.5
 2002/11/04, 1:45,15.2,60.6,15.6,16.4
 2002/11/04, 2:00,15.1,60.4,15.7,16.4
 2002/11/04, 2:15,15.1,60.4,15.6,16.3
 2002/11/04, 2:30,15,60.3,15.4,16.3
 2002/11/04, 2:45,14.9,60.4,15.5,16.3
 2002/11/04, 3:00,14.9,60.3,15.3,16.2
 2002/11/04, 3:15,14.8,60.4,15.3,16.2
 2002/11/04, 3:30,14.7,60.3,15.1,16.2
 2002/11/04, 3:45,14.7,60.4,15.1,16.1
 2002/11/04, 4:00,14.6,60.4,15,16.1
 2002/11/04, 4:15,14.5,60.4,15.1,16
 2002/11/04, 4:30,14.4,60.2,15,16
 2002/11/04, 4:45,14.4,60.3,14.9,16
 2002/11/04, 5:00,14.3,60.2,14.9,15.9
 2002/11/04, 5:15,14.3,60.2,14.7,15.9
 2002/11/04, 5:30,14.2,60.1,14.8,15.9
 2002/11/04, 5:45,14.1,60.1,14.7,15.8
 2002/11/04, 6:00,14,60,14.6,15.8
 2002/11/04, 6:15,14,60,14.6,15.8
 2002/11/04, 6:30,13.9,59.8,14.5,15.7
 2002/11/04, 6:45,13.8,59.6,14.4,15.7
 2002/11/04, 7:00,13.8,59.3,14.3,15.6
 2002/11/04, 7:15,13.8,59.2,14.3,15.6
 2002/11/04, 7:30,13.8,59,14.3,15.6
 2002/11/04, 7:45,13.9,58.8,14.3,15.5
 2002/11/04, 8:00,13.9,58.5,14.3,15.5
 2002/11/04, 8:15,14.1,57.9,14.4,15.4
 2002/11/04, 8:30,14.6,57,14.8,14.9
 2002/11/04, 8:45,15,58.8,15.5,14.9
 2002/11/04, 9:00,16.3,63.6,16.2,14.9
 2002/11/04, 9:15,16.4,62.5,16.7,14.9
 2002/11/04, 9:30,16.6,62.9,17.1,14.9
 2002/11/04, 9:45,16.8,62,17.6,14.9
 2002/11/04,10:00,17.1,62.1,17.8,14.9
 2002/11/04,10:15,17.2,62.6,18.1,14.9
 2002/11/04,10:30,17.5,61.4,18.3,14.9
 2002/11/04,10:45,17.8,60.6,18.6,14.9
 2002/11/04,11:00,18,61.2,18.6,14.9
 2002/11/04,11:15,18.2,60.5,18.2,14.9
 2002/11/04,11:30,18.4,60.3,18.4,14.9
 2002/11/04,11:45,18.6,60.4,18.7,14.9
 2002/11/04,12:00,18.7,46.8,18.4,14.9
 2002/11/04,12:15,17.8,43.6,18,14.9
 2002/11/04,12:30,17.8,38.4,17.9,14.9
 2002/11/04,12:45,18.1,37.5,18,15
 2002/11/04,13:00,18.1,35.5,17.9,15
 2002/11/04,13:15,18.3,36.6,17.7,15
 2002/11/04,13:30,18.3,35.6,17.8,15
 2002/11/04,13:45,18.4,36.9,18.1,15
 2002/11/04,14:00,18.4,39.9,19.2,17.2
 2002/11/04,14:15,18.3,42.2,19.2,17.2
 2002/11/04,14:30,18.3,44.1,19.2,17.2
 2002/11/04,14:45,18.3,45.5,19.3,17.2
 2002/11/04,15:00,18.4,45.9,19.1,17.2
 2002/11/04,15:15,19,50.5,19.2,17.1
 2002/11/04,15:30,18.5,46,19.1,17.1
 2002/11/04,15:45,19,41,18.8,17.1
 2002/11/04,16:00,18.2,38,18.4,17.1
 2002/11/04,16:15,18.7,45.3,18.3,17.1
 2002/11/04,16:30,18.1,36.9,18.3,17
 2002/11/04,16:45,16.4,34.6,17.7,17
 2002/11/04,17:00,15.9,34.5,17.2,15.8
 2002/11/04,17:15,17.4,41.1,17.3,15.8
 2002/11/04,17:30,17.5,43.7,17.5,15.8
 2002/11/04,17:45,17.3,44,17.6,15.8
 2002/11/04,18:00,17.3,44.2,17.5,15.8
 2002/11/04,18:15,17.4,44.3,17.5,15.8
 2002/11/04,18:30,17.9,47,17.9,15.8
 2002/11/04,18:45,17.7,47,18.2,15.8
 2002/11/04,19:00,17.4,50.4,18.7,15.8
 2002/11/04,19:15,17.5,49.6,18.8,15.8
 2002/11/04,19:30,17.4,48.9,18.5,15.8
 2002/11/04,19:45,17.9,47.6,17.9,15.7
 2002/11/04,20:00,18.2,46.7,17.9,15.7
 2002/11/04,20:15,18.3,46,17.8,15.7
 2002/11/04,20:30,17.7,43.6,17.5,15.8
 2002/11/04,20:45,17,43.6,17.4,15.7
 2002/11/04,21:00,17.2,44.1,17.2,15.7
 2002/11/04,21:15,17.2,42.9,17.1,15.7
 2002/11/04,21:30,16.9,43.7,16.9,15.7
 2002/11/04,21:45,17.1,45.6,17,15.7
 2002/11/04,22:00,17.1,48.9,17,15.8
 2002/11/04,22:15,16.8,48.7,16.8,15.8
 2002/11/04,22:30,16.6,48.4,16.7,15.8
 2002/11/04,22:45,16.5,48.4,16.6,15.7
 2002/11/04,23:00,16.3,48.6,16.5,15.7
 2002/11/04,23:15,16.1,48.6,16.3,15.7
 2002/11/04,23:30,16,48.6,16.1,15.7
 2002/11/04,23:45,15.8,48.6,16.1,15.6
 2002/11/05, 0:00,15.7,48.7,15.9,15.6
 2002/11/05, 0:15,15.5,48.7,15.7,15.6
 2002/11/05, 0:30,15.3,48.9,15.6,15.5
 2002/11/05, 0:45,15.2,48.8,15.5,15.5
 2002/11/05, 1:00,15,49.1,15.4,15.5
 2002/11/05, 1:15,14.9,49.1,15.4,15.4
 2002/11/05, 1:30,14.8,49.2,15.2,15.4
 2002/11/05, 1:45,14.6,49.3,15,15.4
 2002/11/05, 2:00,14.5,49.4,14.9,15.3
 2002/11/05, 2:15,14.4,49.4,14.9,15.3
 2002/11/05, 2:30,14.3,49.5,14.8,15.2
 2002/11/05, 2:45,14.2,49.4,14.7,15.2
 2002/11/05, 3:00,14.1,49.7,14.6,15.2
 2002/11/05, 3:15,14,49.6,14.5,15.1
 2002/11/05, 3:30,13.9,49.8,14.3,15.1
 2002/11/05, 3:45,13.8,49.8,14.3,15.1
 2002/11/05, 4:00,13.8,49.9,14.2,15
 2002/11/05, 4:15,13.6,49.9,14,15
 2002/11/05, 4:30,13.5,50.1,14,14.9
 2002/11/05, 4:45,13.4,50.2,13.9,14.9
 2002/11/05, 5:00,13.4,50.3,13.9,14.9
 2002/11/05, 5:15,13.3,50.4,13.8,14.8
 2002/11/05, 5:30,13.2,50.5,13.7,14.8
 2002/11/05, 5:45,13.3,50.6,13.7,14.8
 2002/11/05, 6:00,13.5,56.1,13.7,14.7
 2002/11/05, 6:15,13.4,58.1,13.8,14.7
 2002/11/05, 6:30,13.4,57.1,13.7,14.6
 2002/11/05, 6:45,13.2,56,13.6,14.6
 2002/11/05, 7:00,13.2,55.3,13.5,14.6
 2002/11/05, 7:15,13.1,54.8,13.5,14.5
 2002/11/05, 7:30,13,54.4,13.3,14.5
 2002/11/05, 7:45,13,54,13.4,14.5
 2002/11/05, 8:00,13.3,54,13.4,14.4
 2002/11/05, 8:15,13.4,55.2,13.6,14.3
 2002/11/05, 8:30,14,54.1,13.8,14.3
 2002/11/05, 8:45,13.8,54.6,13.7,14.3
 2002/11/05, 9:00,14.1,54.4,14,14.1
 2002/11/05, 9:15,14.2,53.9,14.2,14.1
 2002/11/05, 9:30,14.1,53.6,14.4,14.1
 2002/11/05, 9:45,14.3,53.2,14.4,14
 2002/11/05,10:00,14.5,52.9,15.2,14
 2002/11/05,10:15,14.7,53.9,15.7,14
 2002/11/05,10:30,15.1,54.1,16.1,14
 2002/11/05,10:45,15.8,49.3,16.2,14
 2002/11/05,11:00,15.6,45.9,16.3,14
 2002/11/05,11:15,16.2,48.4,16.4,13.9
 2002/11/05,11:30,16.3,47,16.5,14
 2002/11/05,11:45,16.3,43,16.6,14
 2002/11/05,12:00,15.8,41.4,16.3,14
 2002/11/05,12:15,16,41.3,16.2,14
 2002/11/05,12:30,15.4,40.6,16,14
 2002/11/05,12:45,15.8,41.3,16,14
 2002/11/05,13:00,14.8,41.9,15.6,14
 2002/11/05,13:15,14.6,42.2,15.5,14
 2002/11/05,13:30,14.9,42.9,15.3,14
 2002/11/05,13:45,15.8,41.7,15.7,14
 2002/11/05,14:00,15.4,41.1,15.7,14
 2002/11/05,14:15,15.5,40.4,15.7,14
 2002/11/05,14:30,15.8,41.1,15.8,14
 2002/11/05,14:45,15.8,40.5,15.8,14
 2002/11/05,15:00,15.7,41.8,15.8,14.1
 2002/11/05,15:15,15.8,42.6,16.1,14.1
 2002/11/05,15:30,15.7,43.3,15.9,14.1
 2002/11/05,15:45,15.8,44.2,15.9,14.1
 2002/11/05,16:00,15.7,44.8,15.8,14.1
 2002/11/05,16:15,15.5,44.9,15.7,14.1
 2002/11/05,16:30,15.4,44.2,15.5,14.1
 2002/11/05,16:45,15.2,44.6,15.4,14.1
 2002/11/05,17:00,15.2,45.1,15.3,14.2
 2002/11/05,17:15,15.4,45.5,15.2,14.2
 2002/11/05,17:30,15.6,45.5,15.2,14.2
 2002/11/05,17:45,16.7,48.2,15.4,14.2
 2002/11/05,18:00,21.8,44.3,15.2,14.2
 2002/11/05,18:15,23.4,46.1,15.2,14.2
 2002/11/05,18:30,21.6,53.3,15.1,14.6
 2002/11/05,18:45,19.7,56.9,15.1,14.6
 2002/11/05,19:00,19.1,56,15.2,14.6
 2002/11/05,19:15,18.6,55.2,15.2,14.6
 2002/11/05,19:30,18.3,55.7,15,14.3
 2002/11/05,19:45,18.2,57.5,15.1,14.9
 2002/11/05,20:00,17.3,51.7,16.7,14.8
 2002/11/05,20:15,16.7,50.9,16.1,14.8
 2002/11/05,20:30,16.4,51.7,16,14.8
 2002/11/05,20:45,16.2,51,15.9,14.8
 2002/11/05,21:00,16.1,51.4,15.9,14.8
 2002/11/05,21:15,15.9,51.1,15.8,14.8
 2002/11/05,21:30,15.7,52.2,15.7,14.8
 2002/11/05,21:45,15.9,54,15.7,14.7
 2002/11/05,22:00,15.7,55.7,15.8,14.8
 2002/11/05,22:15,15.5,54.4,15.7,14.7
 2002/11/05,22:30,15.4,54.6,15.5,14.7
 2002/11/05,22:45,15.2,54.2,15.5,14.7
 2002/11/05,23:00,15.1,54.4,15.4,14.7
 2002/11/05,23:15,14.9,55.6,15.3,14.7
 2002/11/05,23:30,14.9,56.5,15.4,14.7
 2002/11/05,23:45,14.9,56.1,15.3,14.6
 2002/11/06, 0:00,14.8,56.4,15.2,14.7
 2002/11/06, 0:15,14.8,55.4,15.1,14.6
 2002/11/06, 0:30,14.7,55.5,15.1,14.6
 2002/11/06, 0:45,14.6,55.1,14.8,14.6
 2002/11/06, 1:00,14.5,55.2,14.9,14.2
 2002/11/06, 1:15,14.4,55.2,14.8,14.2
 2002/11/06, 1:30,14.4,55.3,14.6,14.1
 2002/11/06, 1:45,14.3,55.1,14.6,14.1
 2002/11/06, 2:00,14.2,55.2,14.6,14.1
 2002/11/06, 2:15,14.1,54.9,14.5,14.1
 2002/11/06, 2:30,14,55,14.3,14.1
 2002/11/06, 2:45,14,54.9,14.3,14.1
 2002/11/06, 3:00,13.9,54.8,14.3,14.1
 2002/11/06, 3:15,13.8,54.6,14.2,14
 2002/11/06, 3:30,13.7,54.6,14.2,14
 2002/11/06, 3:45,13.6,54.3,14,14
 2002/11/06, 4:00,13.6,54.4,14,14
 2002/11/06, 4:15,13.5,54.3,13.9,14
 2002/11/06, 4:30,13.4,54.3,13.9,13.9
 2002/11/06, 4:45,13.3,54.3,13.7,13.9
 2002/11/06, 5:00,13.3,54.3,13.7,13.9
 2002/11/06, 5:15,13.2,54.3,13.5,13.9
 2002/11/06, 5:30,13.1,54.3,13.5,13.9
 2002/11/06, 5:45,13.1,54.2,13.5,13.8
 2002/11/06, 6:00,13,54.4,13.4,13.9
 2002/11/06, 6:15,12.9,54.4,13.4,13.8
 2002/11/06, 6:30,12.8,54.4,13.3,13.8
 2002/11/06, 6:45,12.8,54.4,13.2,13.8
 2002/11/06, 7:00,12.7,54.5,13.2,13.8
 2002/11/06, 7:15,12.7,54.3,13.2,13.7
 2002/11/06, 7:30,12.9,54.6,13.2,13.7
 2002/11/06, 7:45,13.3,57.5,13.5,13.7
 2002/11/06, 8:00,13.7,59.4,14,13.7
 2002/11/06, 8:15,14.1,57.2,14.2,13.7
 2002/11/06, 8:30,14.4,56.7,14.7,13.6
 2002/11/06, 8:45,14.8,56.2,15.1,13.6
 2002/11/06, 9:00,14.9,55.4,15.8,13.6
 2002/11/06, 9:15,15,55.3,16.1,13.6
 2002/11/06, 9:30,15.3,55.2,16.2,13.6
 2002/11/06, 9:45,15.5,54.2,16.7,13.6
 2002/11/06,10:00,15.4,54,16.4,13.6
 2002/11/06,10:15,15.5,53.7,15.9,13.6
 2002/11/06,10:30,16,52,15.8,13.6
 2002/11/06,10:45,15.4,50.8,15.5,13.6
 2002/11/06,11:00,15.8,49.7,15.8,13.5
 2002/11/06,11:15,15.5,49,16,13.6
 2002/11/06,11:30,15.3,49.8,15.5,13.6
 2002/11/06,11:45,15.9,48.7,15.7,13.6
 2002/11/06,12:00,15.5,47.6,15.8,13.6
 2002/11/06,12:15,15.2,47.9,15.5,13.6
 2002/11/06,12:30,15.5,47.9,15.4,13.6
 2002/11/06,12:45,15.6,47.8,15.4,13.6
 2002/11/06,13:00,16,49,16.5,13.6
 2002/11/06,13:15,16.5,49.1,16.8,13.6
 2002/11/06,13:30,16.5,52,16.5,13.7
 2002/11/06,13:45,16.8,56.8,16.6,13.6
 2002/11/06,14:00,17,57.8,16.9,13.7
 2002/11/06,14:15,17.1,57.9,17.2,13.7
 2002/11/06,14:30,17.2,60.5,17.1,13.7
 2002/11/06,14:45,17.1,60.1,17.2,13.7
 2002/11/06,15:00,17,58.9,17,13.8
 2002/11/06,15:15,16.9,57.9,16.8,13.8
 2002/11/06,15:30,16.8,57.4,16.7,13.8
 2002/11/06,15:45,17.1,57.9,16.8,13.9
 2002/11/06,16:00,17.4,57.7,16.9,13.9
 2002/11/06,16:15,17,57.2,16.8,13.9
 2002/11/06,16:30,16.8,57.2,16.7,13.9
 2002/11/06,16:45,16.8,56.5,16.6,14.4
 2002/11/06,17:00,16.8,56.6,16.6,14.4
 2002/11/06,17:15,16.7,56.2,16.5,14.4
 2002/11/06,17:30,16.6,56.3,16.6,14.4
 2002/11/06,17:45,16.8,55.2,16.3,14.4
 2002/11/06,18:00,16.7,55.4,15.8,14.4
 2002/11/06,18:15,16.8,53.5,15.5,14.5
 2002/11/06,18:30,17.3,58.4,15.5,14.4
 2002/11/06,18:45,17.4,57.9,15.3,14.5
 2002/11/06,19:00,17,55,16.2,14.4
 2002/11/06,19:15,16.6,53.5,16.2,14.5
 2002/11/06,19:30,16.4,55.7,16,14.4
 2002/11/06,19:45,16,53.8,16.1,14.4
 2002/11/06,20:00,15.8,53.6,16,14.5
 2002/11/06,20:15,15.9,56,16,14.4
 2002/11/06,20:30,15.7,56,15.9,14.5
 2002/11/06,20:45,15.5,55.1,15.8,15
 2002/11/06,21:00,15.4,55.3,15.5,15
 2002/11/06,21:15,15.2,54.9,15.5,14.9
 2002/11/06,21:30,15.1,55.2,15.4,14.9
 2002/11/06,21:45,15,55.3,15.3,14.9
 2002/11/06,22:00,14.9,55.6,15.2,14.9
 2002/11/06,22:15,14.8,55.5,15.1,14.9
 2002/11/06,22:30,14.7,55.7,15,14.8
 2002/11/06,22:45,14.6,56,14.8,14.8
 2002/11/06,23:00,14.7,58.2,15.1,14.8
 2002/11/06,23:15,14.8,57.4,15.1,14.8
 2002/11/06,23:30,14.8,57.2,15,14.8
 2002/11/06,23:45,14.8,56.7,15.1,14.7
 2002/11/07, 0:00,14.7,56.7,14.9,14.7
 2002/11/07, 0:15,14.7,56.1,14.9,14.7
 2002/11/07, 0:30,14.6,56.2,14.8,14.6
 2002/11/07, 0:45,14.4,55.9,14.8,14.6
 2002/11/07, 1:00,14.3,55.8,14.6,14.6
 2002/11/07, 1:15,14.1,55.7,14.5,14.6
 2002/11/07, 1:30,14,55.7,14.4,14.5
 2002/11/07, 1:45,13.9,55.7,14.3,14.5
 2002/11/07, 2:00,13.8,55.7,14.1,14.5
 2002/11/07, 2:15,13.6,55.7,14.1,14.4
 2002/11/07, 2:30,13.5,55.6,14,14.4
 2002/11/07, 2:45,13.4,55.6,13.9,14.4
 2002/11/07, 3:00,13.3,55.6,13.8,14.4
 2002/11/07, 3:15,13.2,55.6,13.7,14.3
 2002/11/07, 3:30,13.2,55.6,13.6,14.3
 2002/11/07, 3:45,13,55.6,13.5,14.3
 2002/11/07, 4:00,12.9,55.6,13.4,14.2
 2002/11/07, 4:15,12.9,55.5,13.4,14.2
 2002/11/07, 4:30,12.8,55.6,13.2,14.2
 2002/11/07, 4:45,12.7,55.6,13.2,14.1
 2002/11/07, 5:00,12.6,55.7,13.1,14.1
 2002/11/07, 5:15,12.5,55.6,13.1,14
 2002/11/07, 5:30,12.4,55.7,12.9,14
 2002/11/07, 5:45,12.3,55.7,12.8,14
 2002/11/07, 6:00,12.4,60.1,12.9,13.9
 2002/11/07, 6:15,12.5,59.3,12.9,13.9
 2002/11/07, 6:30,12.5,59,12.9,13.8
 2002/11/07, 6:45,12.5,58.1,12.8,13.8
 2002/11/07, 7:00,12.5,57.9,12.8,13.8
 2002/11/07, 7:15,12.5,57.2,12.8,13.7
 2002/11/07, 7:30,12.5,56.9,12.9,13.7
 2002/11/07, 7:45,12.7,56.5,13,13.7
 2002/11/07, 8:00,13,57.4,13.1,13.6
 2002/11/07, 8:15,13.2,58,13.5,13.6
 2002/11/07, 8:30,13.7,58.8,14,13.5
 2002/11/07, 8:45,14.1,58.6,14.4,13.5
 2002/11/07, 9:00,14.3,59.8,14.9,13.5
 2002/11/07, 9:15,14.4,60.5,15.5,13.4
 2002/11/07, 9:30,14.7,61.2,16,13.4
 2002/11/07, 9:45,14.9,61.8,16.3,13.4
 2002/11/07,10:00,15.2,60.9,16.7,13.3
 2002/11/07,10:15,15.7,62.6,16.7,13.3
 2002/11/07,10:30,15.8,62,17.1,13.3
 2002/11/07,10:45,16.1,62.5,17.4,13.3
 2002/11/07,11:00,16.3,62.1,17.5,13.3
 2002/11/07,11:15,16.5,61.6,17.8,13.3
 2002/11/07,11:30,16.7,60.2,17.9,13.3
 2002/11/07,11:45,16.9,59.8,17.9,13.3
 2002/11/07,12:00,17.1,58.7,18.3,13.4
 2002/11/07,12:15,17.2,58.2,18.4,13.4